| time (UTC) | temp F | wind direction | speed MPH | gust MPH | rain 1hr in | rain 24hr in | rain mn in | humidity % | barometer mb |
| 20260507193705 | 62 | 268 | 3.0 | 6.0 | 0.00 | 0.14 | 0.02 | 36 | 1005.3 |
| 20260507193205 | 62 | 251 | 3.0 | 9.0 | 0.00 | 0.14 | 0.02 | 37 | 1005.2 |
| 20260507192705 | 62 | 314 | 3.0 | 8.0 | 0.00 | 0.14 | 0.02 | 35 | 1005.3 |
| 20260507192204 | 62 | 277 | 1.0 | 7.0 | 0.00 | 0.14 | 0.02 | 37 | 1005.4 |
| 20260507191204 | 62 | 308 | 4.0 | 10.0 | 0.00 | 0.15 | 0.02 | 37 | 1005.5 |
| 20260507190204 | 62 | 245 | 2.0 | 7.0 | 0.00 | 0.16 | 0.02 | 35 | 1005.5 |
| 20260507185704 | 63 | 244 | 5.0 | 8.0 | 0.00 | 0.16 | 0.02 | 35 | 1005.6 |
| 20260507185205 | 63 | 268 | 2.0 | 8.0 | 0.00 | 0.16 | 0.02 | 38 | 1005.6 |
| 20260507184204 | 63 | 263 | 2.0 | 9.0 | 0.00 | 0.17 | 0.02 | 36 | 1005.8 |
| 20260507182705 | 63 | 289 | 4.0 | 7.0 | 0.00 | 0.18 | 0.02 | 37 | 1005.9 |
| 20260507182204 | 63 | 300 | 2.0 | 8.0 | 0.00 | 0.18 | 0.02 | 35 | 1005.9 |
| 20260507181705 | 63 | 286 | 2.0 | 7.0 | 0.00 | 0.18 | 0.02 | 34 | 1006.0 |
| 20260507181204 | 63 | 270 | 2.0 | 7.0 | 0.00 | 0.18 | 0.02 | 35 | 1006.0 |
| 20260507180704 | 63 | 283 | 2.0 | 9.0 | 0.00 | 0.18 | 0.02 | 38 | 1006.0 |
| 20260507180204 | 63 | 282 | 3.0 | 10.0 | 0.00 | 0.18 | 0.02 | 38 | 1006.0 |
| 20260507173205 | 62 | 262 | 3.0 | 10.0 | 0.00 | 0.18 | 0.02 | 36 | 1006.0 |
| 20260507172204 | 62 | 260 | 2.0 | 9.0 | 0.00 | 0.18 | 0.02 | 39 | 1005.9 |
| 20260507170704 | 61 | 251 | 3.0 | 12.0 | 0.00 | 0.18 | 0.02 | 36 | 1006.0 |
| 20260507164204 | 61 | 314 | 3.0 | 9.0 | 0.00 | 0.18 | 0.02 | 41 | 1006.5 |
| 20260507162704 | 61 | 354 | 2.0 | 8.0 | 0.00 | 0.18 | 0.02 | 44 | 1006.5 |
| 20260507162205 | 61 | 245 | 1.0 | 7.0 | 0.00 | 0.18 | 0.02 | 49 | 1006.6 |
| 20260507161204 | 60 | 196 | 2.0 | 7.0 | 0.00 | 0.18 | 0.02 | 46 | 1006.6 |
| 20260507160704 | 60 | 324 | 3.0 | 7.0 | 0.00 | 0.18 | 0.02 | 49 | 1006.7 |
| 20260507155704 | 60 | 253 | 1.0 | 8.0 | 0.00 | 0.18 | 0.02 | 52 | 1006.6 |
| 20260507154704 | 59 | 256 | 4.0 | 7.0 | 0.00 | 0.18 | 0.02 | 51 | 1006.7 |
| 20260507154204 | 59 | 215 | 2.0 | 6.0 | 0.00 | 0.18 | 0.02 | 51 | 1006.7 |
| 20260507153704 | 59 | 210 | 3.0 | 5.0 | 0.00 | 0.18 | 0.02 | 55 | 1006.8 |
| 20260507153204 | 59 | 290 | 1.0 | 6.0 | 0.00 | 0.18 | 0.02 | 56 | 1006.8 |
| 20260507152704 | 59 | 253 | 2.0 | 8.0 | 0.00 | 0.18 | 0.02 | 57 | 1006.9 |
| 20260507151704 | 59 | 260 | 1.0 | 9.0 | 0.00 | 0.18 | 0.02 | 59 | 1006.9 |
| 20260507151204 | 59 | 305 | 1.0 | 6.0 | 0.00 | 0.18 | 0.02 | 63 | 1007.0 |
| 20260507145204 | 58 | 305 | 2.0 | 6.0 | 0.00 | 0.18 | 0.02 | 62 | 1007.3 |
| 20260507144704 | 58 | 303 | 3.0 | 8.0 | 0.00 | 0.18 | 0.02 | 62 | 1007.2 |
| 20260507141704 | 58 | 337 | 0.0 | 6.0 | 0.00 | 0.18 | 0.02 | 63 | 1007.1 |
| 20260507135204 | 56 | 228 | 1.0 | 3.0 | 0.00 | 0.18 | 0.02 | 66 | 1007.1 |
| 20260507134205 | 56 | 297 | 2.0 | 3.0 | 0.00 | 0.18 | 0.02 | 68 | 1007.0 |
| 20260507133204 | 55 | 314 | 1.0 | 5.0 | 0.00 | 0.18 | 0.02 | 67 | 1007.1 |
| 20260507132704 | 55 | 258 | 1.0 | 3.0 | 0.00 | 0.18 | 0.02 | 69 | 1007.3 |
| 20260507132204 | 55 | 281 | 1.0 | 6.0 | 0.00 | 0.18 | 0.02 | 70 | 1007.3 |
| 20260507131206 | 54 | 243 | 0.0 | 3.0 | 0.00 | 0.18 | 0.02 | 71 | 1007.5 |
| 20260507130704 | 54 | 246 | 1.0 | 3.0 | 0.00 | 0.18 | 0.02 | 72 | 1007.5 |
| 20260507125704 | 53 | 358 | 1.0 | 3.0 | 0.00 | 0.18 | 0.02 | 75 | 1007.6 |
| 20260507125204 | 53 | 260 | 1.0 | 5.0 | 0.00 | 0.18 | 0.02 | 75 | 1007.6 |
| 20260507124705 | 53 | 217 | 0.0 | 3.0 | 0.00 | 0.18 | 0.02 | 76 | 1007.6 |
| 20260507124204 | 53 | 249 | 2.0 | 5.0 | 0.00 | 0.18 | 0.02 | 76 | 1007.6 |
| 20260507122705 | 52 | 347 | 2.0 | 5.0 | 0.00 | 0.18 | 0.02 | 81 | 1007.7 |
| 20260507122204 | 51 | 58 | 1.0 | 3.0 | 0.00 | 0.18 | 0.02 | 81 | 1007.8 |
| 20260507121704 | 51 | 347 | 1.0 | 3.0 | 0.00 | 0.18 | 0.02 | 82 | 1007.8 |
| 20260507120704 | 50 | 341 | 2.0 | 6.0 | 0.00 | 0.18 | 0.02 | 85 | 1007.8 |
| 20260507115705 | 49 | 251 | 0.0 | 2.0 | 0.00 | 0.18 | 0.02 | 87 | 1007.8 |
| 20260507115204 | 49 | 291 | 0.0 | 1.0 | 0.00 | 0.18 | 0.02 | 87 | 1007.8 |
| 20260507114704 | 49 | 292 | 0.0 | 2.0 | 0.00 | 0.18 | 0.02 | 87 | 1007.7 |
| 20260507112704 | 49 | 5 | 0.0 | 2.0 | 0.00 | 0.18 | 0.02 | 87 | 1007.6 |
| 20260507111205 | 49 | 15 | 0.0 | 0.0 | 0.00 | 0.18 | 0.02 | 89 | 1007.7 |
| 20260507110704 | 49 | 344 | 1.0 | 2.0 | 0.00 | 0.18 | 0.02 | 89 | 1007.7 |
| 20260507105204 | 49 | 6 | 0.0 | 2.0 | 0.00 | 0.18 | 0.02 | 91 | 1007.3 |
| 20260507104704 | 48 | 9 | 0.0 | 1.0 | 0.00 | 0.18 | 0.02 | 91 | 1007.4 |
| 20260507104204 | 48 | 9 | 0.0 | 0.0 | 0.00 | 0.18 | 0.02 | 91 | 1007.2 |
| 20260507103704 | 48 | 9 | 0.0 | 0.0 | 0.00 | 0.18 | 0.02 | 91 | 1007.1 |
| 20260507103204 | 48 | 9 | 0.0 | 0.0 | 0.00 | 0.18 | 0.02 | 91 | 1007.0 |
| 20260507102703 | 48 | 9 | 0.0 | 0.0 | 0.00 | 0.18 | 0.02 | 91 | 1007.1 |
| 20260507102204 | 48 | 9 | 0.0 | 0.0 | 0.00 | 0.18 | 0.02 | 91 | 1006.9 |
| 20260507101704 | 48 | 9 | 0.0 | 1.0 | 0.01 | 0.18 | 0.02 | 91 | 1007.1 |
| 20260507101204 | 48 | 9 | 0.0 | 0.0 | 0.01 | 0.18 | 0.02 | 91 | 1007.0 |
| 20260507100704 | 48 | 9 | 0.0 | 1.0 | 0.01 | 0.18 | 0.02 | 91 | 1007.2 |
| 20260507095703 | 49 | 9 | 0.0 | 3.0 | 0.01 | 0.18 | 0.02 | 91 | 1006.8 |
| 20260507095204 | 49 | 28 | 0.0 | 2.0 | 0.01 | 0.18 | 0.02 | 92 | 1006.9 |
| 20260507094204 | 49 | 259 | 0.0 | 0.0 | 0.01 | 0.18 | 0.02 | 92 | 1007.3 |
| 20260507093204 | 49 | 259 | 0.0 | 0.0 | 0.01 | 0.18 | 0.02 | 92 | 1007.2 |
| 20260507092204 | 49 | 259 | 0.0 | 0.0 | 0.01 | 0.18 | 0.02 | 92 | 1007.0 |
| 20260507091704 | 49 | 259 | 0.0 | 2.0 | 0.00 | 0.17 | 0.01 | 92 | 1007.1 |
| 20260507090205 | 49 | 256 | 0.0 | 1.0 | 0.00 | 0.17 | 0.01 | 92 | 1007.4 |
| 20260507085703 | 50 | 256 | 0.0 | 1.0 | 0.00 | 0.17 | 0.01 | 92 | 1007.1 |
| 20260507085204 | 50 | 256 | 0.0 | 1.0 | 0.00 | 0.17 | 0.01 | 92 | 1006.9 |
| 20260507084704 | 50 | 255 | 0.0 | 1.0 | 0.00 | 0.17 | 0.01 | 92 | 1006.9 |
| 20260507083704 | 50 | 256 | 0.0 | 0.0 | 0.00 | 0.17 | 0.01 | 92 | 1006.8 |
| 20260507082204 | 50 | 257 | 0.0 | 0.0 | 0.00 | 0.17 | 0.01 | 91 | 1006.7 |
| 20260507081204 | 51 | 258 | 0.0 | 2.0 | 0.00 | 0.17 | 0.01 | 90 | 1006.7 |
| 20260507080703 | 51 | 250 | 0.0 | 0.0 | 0.00 | 0.17 | 0.01 | 90 | 1006.7 |
| 20260507080204 | 51 | 257 | 1.0 | 2.0 | 0.00 | 0.17 | 0.01 | 89 | 1006.5 |
| 20260507075705 | 51 | 129 | 1.0 | 2.0 | 0.00 | 0.17 | 0.01 | 88 | 1006.7 |
| 20260507075204 | 51 | 193 | 0.0 | 1.0 | 0.00 | 0.17 | 0.01 | 89 | 1006.6 |
| 20260507074205 | 51 | 193 | 0.0 | 1.0 | 0.00 | 0.17 | 0.01 | 88 | 1007.0 |
| 20260507073704 | 51 | 256 | 1.0 | 3.0 | 0.00 | 0.17 | 0.01 | 88 | 1006.9 |
| 20260507073204 | 51 | 221 | 2.0 | 6.0 | 0.00 | 0.17 | 0.01 | 90 | 1006.5 |
| 20260507064703 | 52 | 291 | 0.0 | 5.0 | 0.00 | 0.17 | 0.01 | 89 | 1006.1 |
| 20260507064203 | 52 | 269 | 1.0 | 6.0 | 0.00 | 0.17 | 0.01 | 90 | 1006.1 |
| 20260507061204 | 52 | 266 | 0.0 | 1.0 | 0.00 | 0.17 | 0.01 | 90 | 1006.0 |
| 20260507060703 | 52 | 266 | 0.0 | 2.0 | 0.00 | 0.17 | 0.01 | 90 | 1006.0 |
| 20260507060204 | 52 | 266 | 0.0 | 3.0 | 0.00 | 0.17 | 0.01 | 90 | 1006.1 |
| 20260507054203 | 53 | 292 | 0.0 | 2.0 | 0.00 | 0.17 | 0.01 | 93 | 1006.5 |
| 20260507051703 | 53 | 294 | 0.0 | 1.0 | 0.00 | 0.17 | 0.01 | 92 | 1006.5 |
| 20260507051204 | 53 | 294 | 0.0 | 2.0 | 0.01 | 0.17 | 0.01 | 92 | 1006.5 |
| 20260507050704 | 53 | 294 | 1.0 | 2.0 | 0.01 | 0.17 | 0.01 | 91 | 1006.7 |
| 20260507043204 | 55 | 290 | 1.0 | 3.0 | 0.01 | 0.17 | 0.01 | 93 | 1006.4 |
| 20260507042703 | 55 | 324 | 0.0 | 3.0 | 0.01 | 0.17 | 0.01 | 93 | 1006.2 |
| 20260507041704 | 55 | 288 | 0.0 | 1.0 | 0.01 | 0.17 | 0.01 | 93 | 1006.4 |
| 20260507040703 | 56 | 292 | 2.0 | 7.0 | 0.00 | 0.16 | 0.00 | 92 | 1006.5 |
| 20260507035704 | 57 | 243 | 1.0 | 5.0 | 0.00 | 0.16 | 0.16 | 94 | 1006.3 |
| 20260507034204 | 57 | 247 | 0.0 | 3.0 | 0.00 | 0.16 | 0.16 | 93 | 1005.8 |
| 20260507033203 | 58 | 330 | 1.0 | 3.0 | 0.00 | 0.16 | 0.16 | 95 | 1005.6 |
| 20260507031703 | 59 | 280 | 0.0 | 3.0 | 0.00 | 0.16 | 0.16 | 95 | 1005.4 |
| 20260507031204 | 59 | 285 | 1.0 | 2.0 | 0.00 | 0.16 | 0.16 | 95 | 1005.2 |
| 20260507030704 | 59 | 284 | 0.0 | 3.0 | 0.00 | 0.16 | 0.16 | 95 | 1005.3 |
| 20260507030205 | 60 | 285 | 1.0 | 3.0 | 0.00 | 0.16 | 0.16 | 95 | 1005.5 |
| 20260507023703 | 60 | 247 | 1.0 | 6.0 | 0.00 | 0.16 | 0.16 | 96 | 1005.1 |
| 20260507022204 | 60 | 177 | 0.0 | 0.0 | 0.00 | 0.16 | 0.16 | 96 | 1004.9 |
| 20260507021703 | 60 | 177 | 0.0 | 1.0 | 0.00 | 0.16 | 0.16 | 96 | 1004.8 |
| 20260507020704 | 60 | 177 | 0.0 | 1.0 | 0.00 | 0.16 | 0.16 | 96 | 1004.6 |
| 20260507020203 | 60 | 177 | 0.0 | 0.0 | 0.00 | 0.16 | 0.16 | 96 | 1004.7 |
| 20260507014703 | 60 | 177 | 0.0 | 1.0 | 0.00 | 0.16 | 0.16 | 96 | 1004.7 |
| 20260507014204 | 60 | 177 | 0.0 | 1.0 | 0.00 | 0.16 | 0.16 | 96 | 1004.7 |
| 20260507013203 | 60 | 177 | 1.0 | 3.0 | 0.00 | 0.16 | 0.16 | 96 | 1004.7 |
| 20260507012704 | 60 | 187 | 0.0 | 3.0 | 0.00 | 0.16 | 0.16 | 96 | 1004.7 |
| 20260507010704 | 60 | 190 | 0.0 | 2.0 | 0.00 | 0.16 | 0.16 | 96 | 1004.8 |
| 20260507010203 | 60 | 189 | 2.0 | 6.0 | 0.00 | 0.16 | 0.16 | 96 | 1004.9 |
| 20260507005204 | 60 | 202 | 0.0 | 2.0 | 0.00 | 0.16 | 0.16 | 96 | 1004.8 |
| 20260507003205 | 60 | 188 | 1.0 | 3.0 | 0.00 | 0.16 | 0.16 | 96 | 1004.6 |
| 20260507001205 | 60 | 173 | 0.0 | 3.0 | 0.01 | 0.16 | 0.16 | 96 | 1004.6 |
| 20260506235705 | 60 | 204 | 0.0 | 1.0 | 0.04 | 0.16 | 0.16 | 96 | 1004.5 |
| 20260506235204 | 60 | 204 | 1.0 | 3.0 | 0.04 | 0.16 | 0.16 | 95 | 1004.5 |
| 20260506234705 | 60 | 188 | 0.0 | 2.0 | 0.05 | 0.16 | 0.16 | 95 | 1004.4 |
| 20260506233704 | 60 | 188 | 0.0 | 2.0 | 0.05 | 0.16 | 0.16 | 95 | 1004.4 |
| 20260506232706 | 60 | 189 | 1.0 | 3.0 | 0.06 | 0.16 | 0.16 | 95 | 1004.4 |
| 20260506225704 | 60 | 192 | 1.0 | 3.0 | 0.02 | 0.12 | 0.12 | 95 | 1004.7 |
| 20260506224704 | 60 | 174 | 1.0 | 3.0 | 0.02 | 0.11 | 0.11 | 95 | 1004.8 |
| 20260506224204 | 60 | 170 | 1.0 | 3.0 | 0.02 | 0.11 | 0.11 | 95 | 1004.8 |
| 20260506222704 | 61 | 164 | 1.0 | 2.0 | 0.02 | 0.10 | 0.10 | 94 | 1004.8 |
| 20260506221204 | 61 | 166 | 1.0 | 5.0 | 0.02 | 0.10 | 0.10 | 94 | 1004.8 |
| 20260506220704 | 61 | 186 | 1.0 | 3.0 | 0.02 | 0.10 | 0.10 | 94 | 1004.8 |
| 20260506215205 | 61 | 199 | 2.0 | 5.0 | 0.03 | 0.10 | 0.10 | 94 | 1004.9 |
| 20260506212704 | 61 | 168 | 1.0 | 3.0 | 0.03 | 0.08 | 0.08 | 93 | 1004.9 |
| 20260506212205 | 61 | 200 | 2.0 | 6.0 | 0.03 | 0.08 | 0.08 | 93 | 1005.0 |
| 20260506211205 | 61 | 176 | 0.0 | 5.0 | 0.04 | 0.08 | 0.08 | 93 | 1005.2 |
| 20260506205704 | 62 | 176 | 1.0 | 3.0 | 0.03 | 0.07 | 0.07 | 93 | 1005.3 |
| 20260506205205 | 62 | 181 | 1.0 | 3.0 | 0.03 | 0.07 | 0.07 | 92 | 1005.3 |
| 20260506204204 | 63 | 198 | 1.0 | 3.0 | 0.02 | 0.06 | 0.06 | 93 | 1005.5 |
| 20260506203705 | 63 | 197 | 0.0 | 2.0 | 0.02 | 0.06 | 0.06 | 92 | 1005.5 |
| 20260506201704 | 63 | 173 | 1.0 | 3.0 | 0.02 | 0.05 | 0.05 | 92 | 1005.6 |
| 20260506201204 | 63 | 186 | 1.0 | 2.0 | 0.01 | 0.04 | 0.04 | 91 | 1005.5 |
| 20260506200204 | 63 | 190 | 1.0 | 6.0 | 0.02 | 0.04 | 0.04 | 91 | 1005.5 |
| 20260506195705 | 63 | 200 | 0.0 | 2.0 | 0.02 | 0.04 | 0.04 | 91 | 1005.5 |
| 20260506195205 | 63 | 183 | 0.0 | 2.0 | 0.02 | 0.04 | 0.04 | 91 | 1005.5 |
| 20260506194704 | 64 | 186 | 1.0 | 3.0 | 0.03 | 0.04 | 0.04 | 90 | 1005.6 |